Location: *
(44.3925°N, 5.4708°E)
Time: 04:34:51
(UTC+00:00)

BREEZE M DEB (TANK) - Pass Details

Date: 18 September 2019
Orbit: 281 x 14544 km, 49.5° (Epoch: 20 October)

Event Time Altitude Azimuth Distance (km) Brightness Sun altitude
Rises 19:10:02 0° 282° (WNW) 1,941 6.9 -15.9°
Reaches altitude 10° 19:11:34 10° 294° (WNW) 1,220 5.4 -16.2°
Maximum altitude 19:13:41 33° 5° (N) 733 3.1 -16.5°
Enters shadow 19:15:43 19° 59° (ENE) 1,414 4.0 -16.9°
